| time (UTC) | temp F | wind direction | speed MPH | gust MPH | rain 1hr in | rain 24hr in | rain mn in | humidity % | barometer mb |
| 20260504213051 | 69 | 10 | 1.0 | 5.0 | 0.00 | 0.00 | 0.00 | 36 | 1008.1 |
| 20260504211553 | 69 | 277 | 1.0 | 9.0 | 0.00 | 0.00 | 0.00 | 34 | 1008.2 |
| 20260504210107 | 70 | 269 | 2.0 | 9.0 | 0.00 | 0.00 | 0.00 | 34 | 1008.1 |
| 20260504204602 | 70 | 349 | 2.0 | 11.0 | 0.00 | 0.00 | 0.00 | 35 | 1008.2 |
| 20260504203058 | 71 | 314 | 3.0 | 12.0 | 0.00 | 0.00 | 0.00 | 32 | 1008.1 |
| 20260504201554 | 71 | 279 | 1.0 | 8.0 | 0.00 | 0.00 | 0.00 | 32 | 1008.1 |
| 20260504200100 | 70 | 290 | 3.0 | 9.0 | 0.00 | 0.00 | 0.00 | 32 | 1008.2 |
| 20260504194608 | 70 | 223 | 4.0 | 12.0 | 0.00 | 0.00 | 0.00 | 32 | 1008.2 |
| 20260504193055 | 70 | 40 | 2.0 | 12.0 | 0.00 | 0.00 | 0.00 | 33 | 1008.3 |
| 20260504191554 | 71 | 260 | 2.0 | 9.0 | 0.00 | 0.00 | 0.00 | 30 | 1008.2 |
| 20260504190117 | 71 | 87 | 2.0 | 11.0 | 0.00 | 0.00 | 0.00 | 31 | 1008.5 |
| 20260504184559 | 70 | 128 | 3.0 | 10.0 | 0.00 | 0.00 | 0.00 | 30 | 1008.5 |
| 20260504183056 | 70 | 294 | 2.0 | 14.0 | 0.00 | 0.00 | 0.00 | 30 | 1008.9 |
| 20260504181558 | 70 | 38 | 2.0 | 12.0 | 0.00 | 0.00 | 0.00 | 38 | 1008.7 |
| 20260504180144 | 70 | 86 | 2.0 | 11.0 | 0.00 | 0.00 | 0.00 | 34 | 1008.7 |
| 20260504174556 | 70 | 288 | 2.0 | 13.0 | 0.00 | 0.00 | 0.00 | 33 | 1008.9 |
| 20260504173113 | 70 | 178 | 4.0 | 10.0 | 0.00 | 0.00 | 0.00 | 31 | 1008.9 |
| 20260504171556 | 70 | 244 | 2.0 | 13.0 | 0.00 | 0.00 | 0.00 | 32 | 1009.1 |
| 20260504140109 | 63 | 296 | 1.0 | 9.0 | 0.00 | 0.00 | 0.00 | 42 | 1010.7 |
| 20260504120111 | 51 | 20 | 1.0 | 6.0 | 0.00 | 0.00 | 0.00 | 58 | 1011.8 |
| 20260504081552 | 43 | 0 | 0.0 | 2.0 | 0.00 | 0.00 | 0.00 | 69 | 1011.5 |
| 20260504070157 | 44 | 0 | 0.0 | 0.0 | 0.00 | 0.00 | 0.00 | 59 | 1011.3 |
| 20260504050136 | 40 | 0 | 0.0 | 2.0 | 0.00 | 0.00 | 0.00 | 71 | 1011.4 |
| 20260504044558 | 40 | 0 | 0.0 | 2.0 | 0.00 | 0.00 | 0.00 | 69 | 1011.4 |
| 20260504043058 | 40 | 0 | 0.0 | 1.0 | 0.00 | 0.00 | 0.00 | 66 | 1011.4 |
| 20260504041552 | 40 | 0 | 0.0 | 1.0 | 0.00 | 0.00 | 0.00 | 67 | 1011.4 |
| 20260504034553 | 41 | 140 | 0.0 | 2.0 | 0.00 | 0.00 | 0.00 | 65 | 1011.2 |
| 20260504033058 | 41 | 140 | 0.0 | 2.0 | 0.00 | 0.00 | 0.00 | 63 | 1011.2 |
| 20260504031624 | 41 | 0 | 0.0 | 2.0 | 0.00 | 0.00 | 0.00 | 64 | 1011.2 |
| 20260504030054 | 42 | 0 | 0.0 | 2.0 | 0.00 | 0.00 | 0.00 | 62 | 1011.2 |
| 20260504024606 | 42 | 140 | 0.0 | 2.0 | 0.00 | 0.00 | 0.00 | 60 | 1011.1 |
| 20260504023055 | 42 | 140 | 0.0 | 2.0 | 0.00 | 0.00 | 0.00 | 60 | 1011.0 |
| 20260504021612 | 43 | 140 | 0.0 | 2.0 | 0.00 | 0.00 | 0.00 | 59 | 1010.9 |
| 20260504014557 | 43 | 0 | 0.0 | 1.0 | 0.00 | 0.00 | 0.00 | 59 | 1010.7 |
| 20260504013102 | 43 | 0 | 0.0 | 2.0 | 0.00 | 0.00 | 0.00 | 60 | 1010.7 |
| 20260504011554 | 43 | 0 | 0.0 | 1.0 | 0.00 | 0.00 | 0.00 | 57 | 1010.7 |
| 20260504010113 | 43 | 0 | 0.0 | 2.0 | 0.00 | 0.00 | 0.00 | 58 | 1010.5 |
| 20260504004556 | 44 | 0 | 0.0 | 1.0 | 0.00 | 0.00 | 0.00 | 57 | 1010.3 |
| 20260504003055 | 44 | 0 | 0.0 | 1.0 | 0.00 | 0.00 | 0.00 | 56 | 1010.2 |
| 20260504001609 | 45 | 0 | 0.0 | 2.0 | 0.00 | 0.00 | 0.00 | 55 | 1010.1 |
| 20260504000059 | 46 | 0 | 1.0 | 2.0 | 0.00 | 0.00 | 0.00 | 53 | 1009.9 |
| 20260503234551 | 48 | 0 | 0.0 | 2.0 | 0.00 | 0.00 | 0.00 | 53 | 1009.8 |
| 20260503233052 | 49 | 0 | 0.0 | 1.0 | 0.00 | 0.00 | 0.00 | 48 | 1009.6 |
| 20260503231554 | 49 | 205 | 0.0 | 3.0 | 0.00 | 0.00 | 0.00 | 47 | 1009.6 |
| 20260503230051 | 49 | 287 | 0.0 | 4.0 | 0.00 | 0.00 | 0.00 | 45 | 1009.4 |
| 20260503224554 | 50 | 209 | 1.0 | 6.0 | 0.00 | 0.00 | 0.00 | 46 | 1009.1 |
| 20260503223051 | 51 | 91 | 1.0 | 6.0 | 0.00 | 0.00 | 0.00 | 43 | 1008.9 |
| 20260503221553 | 51 | 250 | 1.0 | 5.0 | 0.00 | 0.00 | 0.00 | 42 | 1008.7 |
| 20260503220054 | 51 | 263 | 2.0 | 8.0 | 0.00 | 0.00 | 0.00 | 41 | 1008.5 |
| 20260503214556 | 51 | 235 | 1.0 | 7.0 | 0.00 | 0.00 | 0.00 | 43 | 1008.3 |